FLOCK 4S-22 (47452 NORAD) Tracking and Keplerian Element Data

This shows tracking and keplerian element data for the satellite.

Feedback or suggestion? Click here.




ElementValue
Catalog47452
NameFLOCK 4S-22
Epoch Orbit1168
Epoch Day99.87956481
Epoch Year2021
RAAN162.3383
Inclination97.4996
Eccentricity0.0010748
Argument of Perigee342.5474
Mean Anonmoly17.5386
Mean Motion15.12773221
Decay Rate1.195E-05
L11 47452U 21006AR 21099.87956481 .00001195 00000-0 71773-4 0 9995
L22 47452 97.4996 162.3383 0010748 342.5474 17.5386 15.12773221 11680

Live tracking and technical data element details for FLOCK 4S-22 (NORAD 47452). FLOCK 4S-22 can be tracked NOW for your location showing map with azimuth and elevation plus other details from your city location.

Track the satellite on the map from your city or location and see movement details for azimuth, elevation, latitude, longitude, range, height, and movement on the map or in text.







IsCatalogInMostPopularTable: catalog: 47452, numindb: 17
Update: records affected: 1



GetName: 47452 FLOCK 4S-22

Hit Count: updated at: Sat, 10 Apr 2021 19:49:25 GMT